North Myrtle Beach, SC

9:55 PM EST on December 14, 2019 (GMT -0500)
Grand Strand

Weather History for KCRE - October, 2019

Change the Weather History Date:

Saturday, October 12, 2019

  Actual Average Record
Temperature  
Mean Temperature 71 °F 67 °F  
Max Temperature 83 °F 76 °F 87 °F (1990)
Min Temperature 58 °F 57 °F 40 °F (2000)
Degree Days  
Heating Degree Days 0 2  
Month to date heating degree days 0 14  
Since 1 July heating degree days 0 18  
Cooling Degree Days 6 3  
Month to date cooling degree days 110 57  
Year to date cooling degree days 2293 1841  
Growing Degree Days 20 (Base 50)    
Moisture  
Dew Point 59 °F    
Average Humidity 67    
Maximum Humidity 93    
Minimum Humidity 40    
Precipitation  
Precipitation 0.00 in 0.13 in 2.85 in (1990)
Month to date precipitation 0.03 1.67  
Year to date precipitation 42.60 43.30  
Sea Level Pressure  
Sea Level Pressure 30.03 in    
Wind  
Wind Speed 8 mph (WSW)    
Max Wind Speed 15 mph    
Max Gust Speed 18 mph    
Visibility 10 miles    
Events      
T = Trace of Precipitation, MM = Missing Value Source: NWS Daily Summary

Daily Weather History Graph

Daily Weather History Graph

Search for Another Location

Airport or City:

Astronomy

Oct. 12, 2019 Rise Set
Actual Time 7:17 AM EDT 6:44 PM EDT
Civil Twilight 6:52 AM EDT 7:10 PM EDT
Nautical Twilight 6:23 AM EDT 7:38 PM EDT
Astronomical Twilight 5:54 AM EDT 8:07 PM EDT
Moon 6:34 PM EDT (10/12) 6:00 AM EDT (10/12)
Length of Visible Light 12h 17m
Length of Day
11h 27m
Waxing Gibbous, 99% of the Moon is Illuminated
Oct 12
Waxing Gibbous
Oct 13
Full
Oct 21
Last Quarter
Oct 27
New
Nov 4
First Quarter

Hourly Weather History & Observations

Time (EDT) Temp. Heat Index Dew Point Humidity Pressure Visibility Wind Dir Wind Speed Gust Speed Precip Events Conditions
12:53 AM 63.0 °F - 57.0 °F 81% 30.05 in 10.0 mi West 4.6 mph - N/A   Clear
1:53 AM 62.1 °F - 57.0 °F 84% 30.04 in 10.0 mi WNW 3.5 mph - N/A   Clear
3:53 AM 61.0 °F - 57.9 °F 90% 30.01 in 10.0 mi West 5.8 mph - N/A   Clear
4:53 AM 60.1 °F - 57.0 °F 90% 30.01 in 10.0 mi WNW 4.6 mph - N/A   Clear
5:53 AM 59.0 °F - 57.0 °F 93% 30.02 in 10.0 mi Calm Calm - N/A   Clear
6:53 AM 60.1 °F - 57.0 °F 90% 30.04 in 10.0 mi WNW 4.6 mph - N/A   Clear
7:53 AM 61.0 °F - 57.9 °F 90% 30.05 in 10.0 mi WNW 4.6 mph - N/A   Clear
8:53 AM 64.0 °F - 59.0 °F 84% 30.06 in 10.0 mi West 5.8 mph - N/A   Clear
9:53 AM 70.0 °F - 57.9 °F 65% 30.06 in 10.0 mi Variable 6.9 mph - N/A   Clear
10:53 AM 75.0 °F - 57.9 °F 55% 30.06 in 10.0 mi West 5.8 mph - N/A   Clear
11:53 AM 78.1 °F - 57.9 °F 50% 30.05 in 10.0 mi Variable 6.9 mph - N/A   Clear
12:53 PM 80.1 °F 80.2 °F 55.9 °F 43% 30.04 in 10.0 mi NW 8.1 mph - N/A   Clear
1:53 PM 82.0 °F 81.4 °F 55.0 °F 39% 30.01 in 10.0 mi WSW 6.9 mph - N/A   Clear
2:53 PM 79.0 °F - 60.1 °F 52% 30.00 in 10.0 mi South 11.5 mph - N/A   Clear
3:53 PM 79.0 °F - 62.1 °F 56% 30.00 in 10.0 mi SSW 10.4 mph - N/A   Clear
4:53 PM 79.0 °F - 61.0 °F 54% 30.00 in 10.0 mi SSW 15.0 mph - N/A   Clear
5:53 PM 78.1 °F - 60.1 °F 54% 30.01 in 10.0 mi SSW 11.5 mph - N/A   Clear
6:53 PM 75.9 °F - 59.0 °F 56% 30.01 in 10.0 mi SSW 12.7 mph - N/A   Clear
9:53 PM 75.0 °F - 62.1 °F 64% 30.05 in 10.0 mi SW 12.7 mph - N/A   Clear
10:53 PM 75.0 °F - 62.1 °F 64% 30.04 in 10.0 mi SSW 12.7 mph - N/A   Clear
11:53 PM 73.9 °F - 62.1 °F 66% 30.04 in 10.0 mi SSW 9.2 mph - N/A   Clear